VJC244 VVTS-VVDB

Flight info

Callsign VJC244
Flight time 2h 16m
Altitude 26000
Route SAPEN5K SAPEN R468 TIA/N0461F360 W1 REP R345 ROT R470 VTN/N0458F370 B218 LPB B468 LADON LADON2B
Aircraft A321/M-SDE3FGHIRWY/LB1

Departure

Time 2026-04-14 04:48
Airport Tan Son Nhat International Airport (VVTS)

Arrival

Time 2026-04-14 07:04
Airport Dien Bien Phu Airport (VVDB)
Time Latitude Longitude Altitude Speed Heading
2026-04-14 04:11 10.81361 106.65563 31 ft 0 kts 160°
2026-04-14 04:38 10.81369 106.65560 31 ft 0 kts 160°
2026-04-14 04:38 10.81380 106.65555 31 ft 2 kts 140°
2026-04-14 04:38 10.81390 106.65543 31 ft 2 kts 117°
2026-04-14 04:39 10.81395 106.65529 31 ft 2 kts 93°
2026-04-14 04:39 10.81393 106.65515 31 ft 0 kts 72°
2026-04-14 04:39 10.81391 106.65509 31 ft 1 kts 68°
2026-04-14 04:39 10.81390 106.65507 31 ft 0 kts 69°
2026-04-14 04:41 10.81392 106.65512 31 ft 2 kts 69°
2026-04-14 04:42 10.81405 106.65548 30 ft 7 kts 70°
2026-04-14 04:42 10.81431 106.65617 30 ft 12 kts 69°
2026-04-14 04:42 10.81467 106.65716 29 ft 17 kts 70°
2026-04-14 04:42 10.81549 106.65793 29 ft 17 kts
2026-04-14 04:43 10.81667 106.65803 29 ft 16 kts 355°
2026-04-14 04:43 10.81765 106.65823 29 ft 16 kts 66°
2026-04-14 04:43 10.81806 106.65928 29 ft 16 kts 68°
2026-04-14 04:43 10.81845 106.66033 29 ft 15 kts 70°
2026-04-14 04:44 10.81887 106.66138 29 ft 15 kts 69°
2026-04-14 04:44 10.81927 106.66244 29 ft 15 kts 69°
2026-04-14 04:44 10.81966 106.66349 29 ft 15 kts 69°
2026-04-14 04:44 10.82005 106.66454 29 ft 15 kts 69°
2026-04-14 04:45 10.82044 106.66557 29 ft 15 kts 68°
2026-04-14 04:45 10.82084 106.66659 30 ft 15 kts 70°
2026-04-14 04:45 10.82119 106.66753 32 ft 14 kts 69°
2026-04-14 04:45 10.82155 106.66851 32 ft 15 kts 69°
2026-04-14 04:46 10.82193 106.66952 34 ft 14 kts 69°
2026-04-14 04:46 10.82250 106.67008 35 ft 11 kts 353°
2026-04-14 04:46 10.82268 106.67003 35 ft 0 kts 342°
2026-04-14 04:46 10.82271 106.67002 35 ft 2 kts 342°
2026-04-14 04:47 10.82319 106.66978 34 ft 12 kts 315°
2026-04-14 04:47 10.82359 106.66917 34 ft 10 kts 245°
2026-04-14 04:47 10.82352 106.66901 33 ft 2 kts 247°
2026-04-14 04:47 10.82288 106.66734 32 ft 59 kts 249°
2026-04-14 04:48 10.82055 106.66119 29 ft 125 kts 250°
2026-04-14 04:48 10.81683 106.65116 59 ft 173 kts 248°
2026-04-14 04:48 10.81279 106.63972 708 ft 167 kts 249°
2026-04-14 04:48 10.80881 106.62888 1316 ft 167 kts 247°
2026-04-14 04:49 10.80445 106.61764 1824 ft 170 kts 246°
2026-04-14 04:49 10.80005 106.60630 2048 ft 179 kts 246°
2026-04-14 04:49 10.79536 106.59406 2255 ft 190 kts 247°
2026-04-14 04:49 10.79043 106.58107 2474 ft 201 kts 247°
2026-04-14 04:50 10.78538 106.56732 2705 ft 213 kts 252°
2026-04-14 04:50 10.78542 106.55203 2910 ft 228 kts 290°
2026-04-14 04:50 10.79354 106.53780 3111 ft 244 kts 306°
2026-04-14 04:50 10.80411 106.52338 3393 ft 260 kts 307°
2026-04-14 04:51 10.81521 106.50801 3728 ft 276 kts 306°
2026-04-14 04:51 10.82614 106.49203 4295 ft 281 kts 305°
2026-04-14 04:51 10.83706 106.47541 4987 ft 283 kts 304°
2026-04-14 04:51 10.84780 106.45869 5693 ft 285 kts 304°
2026-04-14 04:52 10.85848 106.44184 6396 ft 287 kts 304°
2026-04-14 04:52 10.86923 106.42481 7085 ft 289 kts 304°
2026-04-14 04:52 10.88007 106.40756 7749 ft 292 kts 304°
2026-04-14 04:52 10.89102 106.39010 8411 ft 295 kts 304°
2026-04-14 04:53 10.90210 106.37241 9044 ft 298 kts 304°
2026-04-14 04:53 10.91321 106.35467 9680 ft 300 kts 303°
2026-04-14 04:53 10.92454 106.33656 10252 ft 305 kts 303°
2026-04-14 04:53 10.93616 106.31798 10538 ft 320 kts 303°
2026-04-14 04:54 10.94839 106.29841 10803 ft 335 kts 303°
2026-04-14 04:54 10.96121 106.27786 11085 ft 349 kts 303°
2026-04-14 04:54 10.97433 106.25683 11540 ft 357 kts 303°
2026-04-14 04:54 10.98779 106.23528 12101 ft 360 kts 302°
2026-04-14 04:55 11.00128 106.21368 12622 ft 364 kts 302°
2026-04-14 04:55 11.01420 106.19169 13134 ft 368 kts 299°
2026-04-14 04:55 11.02587 106.16818 13656 ft 370 kts 294°
2026-04-14 04:55 11.03579 106.14426 14205 ft 372 kts 292°
2026-04-14 04:56 11.04537 106.11983 14748 ft 373 kts 292°
2026-04-14 04:56 11.05504 106.09499 15271 ft 375 kts 292°
2026-04-14 04:56 11.06466 106.07034 15754 ft 378 kts 292°
2026-04-14 04:56 11.07440 106.04552 16236 ft 380 kts 292°
2026-04-14 04:57 11.08429 106.02034 16708 ft 382 kts 292°
2026-04-14 04:57 11.09404 105.99555 17167 ft 384 kts 292°
2026-04-14 04:57 11.10384 105.96983 17626 ft 387 kts 290°
2026-04-14 04:57 11.11216 105.94367 18052 ft 390 kts 286°
2026-04-14 04:58 11.11881 105.91717 18456 ft 393 kts 283°
2026-04-14 04:58 11.12496 105.88974 18873 ft 396 kts 282°
2026-04-14 04:58 11.13096 105.86253 19291 ft 398 kts 282°
2026-04-14 04:58 11.13707 105.83483 19701 ft 401 kts 282°
2026-04-14 04:59 11.14314 105.80743 20109 ft 403 kts 282°
2026-04-14 04:59 11.14935 105.77947 20509 ft 405 kts 282°
2026-04-14 04:59 11.15564 105.75125 20894 ft 407 kts 282°
2026-04-14 04:59 11.16185 105.72339 21267 ft 410 kts 282°
2026-04-14 05:00 11.16821 105.69488 21629 ft 412 kts 282°
2026-04-14 05:00 11.17452 105.66657 22004 ft 414 kts 282°
2026-04-14 05:00 11.18094 105.63769 22365 ft 417 kts 282°
2026-04-14 05:00 11.18731 105.60903 22710 ft 419 kts 282°
2026-04-14 05:01 11.19377 105.57992 23054 ft 421 kts 282°
2026-04-14 05:01 11.20026 105.55069 23388 ft 424 kts 282°
2026-04-14 05:01 11.20673 105.52155 23713 ft 426 kts 282°
2026-04-14 05:01 11.21345 105.49125 24049 ft 428 kts 282°
2026-04-14 05:02 11.22015 105.46101 24375 ft 430 kts 282°
2026-04-14 05:02 11.22698 105.43019 24708 ft 432 kts 282°
2026-04-14 05:02 11.23416 105.39783 25035 ft 435 kts 283°
2026-04-14 05:02 11.24097 105.36706 25330 ft 437 kts 283°
2026-04-14 05:03 11.24767 105.33682 25621 ft 439 kts 282°
2026-04-14 05:03 11.25440 105.30637 25925 ft 441 kts 283°
2026-04-14 05:03 11.26112 105.27593 26226 ft 442 kts 283°
2026-04-14 05:03 11.26782 105.24560 26522 ft 444 kts 283°
2026-04-14 05:04 11.27469 105.21452 26818 ft 446 kts 283°
2026-04-14 05:04 11.28170 105.18275 27090 ft 448 kts 283°
2026-04-14 05:04 11.28858 105.15161 27344 ft 451 kts 283°
2026-04-14 05:04 11.29538 105.12073 27616 ft 452 kts 283°
2026-04-14 05:05 11.30233 105.08919 27883 ft 454 kts 283°
2026-04-14 05:05 11.31071 105.05835 28088 ft 456 kts 293°
2026-04-14 05:05 11.32803 105.03109 28263 ft 455 kts 315°
2026-04-14 05:05 11.35320 105.01225 28504 ft 451 kts 335°
2026-04-14 05:06 11.38272 105.00099 28807 ft 450 kts 343°
2026-04-14 05:06 11.41261 104.99057 29034 ft 452 kts 342°
2026-04-14 05:06 11.44206 104.97992 29246 ft 454 kts 341°
2026-04-14 05:06 11.47211 104.96869 29546 ft 454 kts 340°
2026-04-14 05:07 11.50152 104.95745 30061 ft 448 kts 340°
2026-04-14 05:07 11.53049 104.94624 30518 ft 444 kts 340°
2026-04-14 05:07 11.55932 104.93499 30788 ft 445 kts 339°
2026-04-14 05:07 11.58856 104.92351 31005 ft 447 kts 339°
2026-04-14 05:08 11.61765 104.91207 31243 ft 448 kts 339°
2026-04-14 05:08 11.64667 104.90065 31543 ft 447 kts 339°
2026-04-14 05:08 11.67558 104.88926 31885 ft 446 kts 339°
2026-04-14 05:08 11.70467 104.87779 32219 ft 444 kts 339°
2026-04-14 05:09 11.73359 104.86639 32520 ft 444 kts 338°
2026-04-14 05:09 11.76224 104.85508 32847 ft 443 kts 338°
2026-04-14 05:09 11.79101 104.84373 33184 ft 442 kts 338°
2026-04-14 05:09 11.81977 104.83236 33534 ft 441 kts 338°
2026-04-14 05:10 11.84850 104.82101 33882 ft 440 kts 338°
2026-04-14 05:10 11.87684 104.80981 34224 ft 438 kts 338°
2026-04-14 05:10 11.90545 104.79849 34499 ft 438 kts 338°
2026-04-14 05:10 11.93401 104.78720 34715 ft 440 kts 338°
2026-04-14 05:11 11.96239 104.77597 34929 ft 441 kts 338°
2026-04-14 05:11 11.99103 104.76464 35139 ft 442 kts 338°
2026-04-14 05:11 12.01965 104.75333 35358 ft 442 kts 338°
2026-04-14 05:11 12.04868 104.74185 35574 ft 442 kts 338°
2026-04-14 05:12 12.07726 104.73055 35774 ft 443 kts 338°
2026-04-14 05:12 12.13517 104.70761 35853 ft 445 kts 338°
2026-04-14 05:13 12.19319 104.68463 35859 ft 445 kts 338°
2026-04-14 05:13 12.25099 104.66172 35858 ft 447 kts 338°
2026-04-14 05:14 12.31029 104.63822 35857 ft 456 kts 338°
2026-04-14 05:14 12.37016 104.61447 35855 ft 463 kts 338°
2026-04-14 05:15 12.43057 104.59051 35854 ft 469 kts 338°
2026-04-14 05:15 12.49190 104.56616 35849 ft 472 kts 338°
2026-04-14 05:16 12.55328 104.54179 35848 ft 472 kts 338°
2026-04-14 05:16 12.61449 104.51747 35848 ft 472 kts 338°
2026-04-14 05:17 12.67598 104.49303 35848 ft 472 kts 338°
2026-04-14 05:17 12.73746 104.46858 35848 ft 472 kts 338°
2026-04-14 05:18 12.79869 104.44420 35848 ft 473 kts 338°
2026-04-14 05:18 12.86016 104.41972 35848 ft 473 kts 338°
2026-04-14 05:19 12.92171 104.39518 35848 ft 473 kts 338°
2026-04-14 05:19 12.98310 104.37071 35849 ft 473 kts 338°
2026-04-14 05:20 13.04446 104.34624 35850 ft 473 kts 338°
2026-04-14 05:20 13.10566 104.32182 35849 ft 473 kts 338°
2026-04-14 05:21 13.16740 104.29717 35854 ft 473 kts 338°
2026-04-14 05:21 13.22867 104.27268 35859 ft 473 kts 338°
2026-04-14 05:22 13.29005 104.24811 35865 ft 473 kts 338°
2026-04-14 05:22 13.35156 104.22349 35867 ft 473 kts 338°
2026-04-14 05:23 13.41318 104.19812 35869 ft 473 kts 337°
2026-04-14 05:23 13.47435 104.17240 35870 ft 474 kts 337°
2026-04-14 05:24 13.53561 104.14666 35861 ft 473 kts 337°
2026-04-14 05:24 13.59696 104.12090 35861 ft 473 kts 337°
2026-04-14 05:25 13.65772 104.09539 35854 ft 473 kts 337°
2026-04-14 05:25 13.71873 104.06976 35848 ft 473 kts 337°
2026-04-14 05:26 13.78012 104.04394 35848 ft 474 kts 337°
2026-04-14 05:26 13.84125 104.01823 35853 ft 474 kts 337°
2026-04-14 05:27 13.90239 103.99249 35857 ft 475 kts 337°
2026-04-14 05:27 13.96353 103.96671 35860 ft 474 kts 337°
2026-04-14 05:28 14.02474 103.94086 35865 ft 473 kts 337°
2026-04-14 05:28 14.08556 103.91515 35860 ft 473 kts 337°
2026-04-14 05:29 14.14673 103.88927 35856 ft 474 kts 337°
2026-04-14 05:29 14.20801 103.86334 35853 ft 474 kts 337°
2026-04-14 05:30 14.26890 103.83760 35853 ft 475 kts 338°
2026-04-14 05:30 14.33161 103.81598 35854 ft 475 kts 344°
2026-04-14 05:31 14.39649 103.80194 35858 ft 475 kts 351°
2026-04-14 05:31 14.46259 103.79582 35862 ft 475 kts 357°
2026-04-14 05:32 14.52880 103.79493 35872 ft 475 kts 359°
2026-04-14 05:32 14.59512 103.79446 35871 ft 475 kts 359°
2026-04-14 05:33 14.66119 103.79389 35870 ft 476 kts 359°
2026-04-14 05:33 14.72765 103.79327 35864 ft 476 kts 359°
2026-04-14 05:34 14.82695 103.79230 35854 ft 475 kts 358°
2026-04-14 05:34 14.89328 103.79147 35852 ft 474 kts 358°
2026-04-14 05:35 14.95935 103.79066 35851 ft 474 kts 358°
2026-04-14 05:35 15.02530 103.78957 35849 ft 475 kts 358°
2026-04-14 05:36 15.09176 103.78840 35848 ft 475 kts 358°
2026-04-14 05:36 15.15811 103.78727 35848 ft 475 kts 358°
2026-04-14 05:37 15.22423 103.78622 35848 ft 474 kts 358°
2026-04-14 05:37 15.29034 103.78519 35846 ft 474 kts 358°
2026-04-14 05:38 15.35597 103.78416 35845 ft 474 kts 358°
2026-04-14 05:38 15.42226 103.78311 35847 ft 474 kts 358°
2026-04-14 05:39 15.48824 103.78207 35844 ft 474 kts 358°
2026-04-14 05:39 15.55432 103.78104 35847 ft 474 kts 358°
2026-04-14 05:40 15.62044 103.78001 35847 ft 474 kts 358°
2026-04-14 05:40 15.68639 103.77898 35851 ft 474 kts 358°
2026-04-14 05:41 15.75264 103.77794 35854 ft 473 kts 358°
2026-04-14 05:41 15.81932 103.77688 35848 ft 473 kts 358°
2026-04-14 05:42 15.88527 103.77583 35844 ft 473 kts 358°
2026-04-14 05:42 15.95157 103.77479 35842 ft 474 kts 358°
2026-04-14 05:43 16.01767 103.77356 35841 ft 473 kts 356°
2026-04-14 05:43 16.08261 103.76385 35849 ft 472 kts 345°
2026-04-14 05:44 16.14463 103.74129 35848 ft 470 kts 334°
2026-04-14 05:44 16.20076 103.70712 35848 ft 468 kts 323°
2026-04-14 05:45 16.25291 103.66671 35842 ft 468 kts 322°
2026-04-14 05:45 16.30493 103.62573 35841 ft 468 kts 322°
2026-04-14 05:46 16.35722 103.58469 35841 ft 468 kts 322°
2026-04-14 05:46 16.40932 103.54386 35842 ft 469 kts 322°
2026-04-14 05:47 16.46139 103.50304 35840 ft 469 kts 322°
2026-04-14 05:47 16.51327 103.46236 35841 ft 468 kts 322°
2026-04-14 05:48 16.56559 103.42141 35847 ft 467 kts 322°
2026-04-14 05:48 16.61755 103.38071 35850 ft 467 kts 322°
2026-04-14 05:49 16.66917 103.34023 35854 ft 467 kts 322°
2026-04-14 05:49 16.72124 103.29935 35858 ft 467 kts 322°
2026-04-14 05:50 16.77333 103.25840 35863 ft 468 kts 322°
2026-04-14 05:50 16.82524 103.21757 35861 ft 467 kts 322°
2026-04-14 05:51 16.87717 103.17667 35857 ft 467 kts 322°
2026-04-14 05:51 16.92871 103.13605 35849 ft 466 kts 322°
2026-04-14 05:52 16.98080 103.09499 35844 ft 466 kts 322°
2026-04-14 05:52 17.03247 103.05426 35832 ft 465 kts 322°
2026-04-14 05:53 17.08426 103.01337 35826 ft 466 kts 322°
2026-04-14 05:53 17.13588 102.97255 35829 ft 466 kts 321°
2026-04-14 05:54 17.18762 102.93159 35836 ft 466 kts 321°
2026-04-14 05:54 17.23913 102.89075 35836 ft 465 kts 321°
2026-04-14 05:55 17.29068 102.84988 35840 ft 464 kts 321°
2026-04-14 05:55 17.34306 102.81024 35839 ft 465 kts 325°
2026-04-14 05:56 17.39914 102.77593 35843 ft 466 kts 331°
2026-04-14 05:56 17.45836 102.74793 35840 ft 468 kts 337°
2026-04-14 05:57 17.51952 102.72463 35837 ft 469 kts 339°
2026-04-14 05:57 17.58118 102.70167 35830 ft 468 kts 339°
2026-04-14 05:58 17.64267 102.67871 35825 ft 468 kts 339°
2026-04-14 05:58 17.70386 102.65580 35823 ft 468 kts 338°
2026-04-14 05:59 17.76538 102.63273 35820 ft 468 kts 338°
2026-04-14 05:59 17.82649 102.60980 35821 ft 468 kts 338°
2026-04-14 06:00 17.88789 102.58672 35822 ft 469 kts 338°
2026-04-14 06:00 17.95162 102.57062 35823 ft 473 kts 352°
2026-04-14 06:01 18.01747 102.57360 35823 ft 478 kts
2026-04-14 06:01 18.08103 102.59609 35821 ft 484 kts 25°
2026-04-14 06:02 18.13770 102.63455 35826 ft 486 kts 33°
2026-04-14 06:02 18.19254 102.67612 35835 ft 487 kts 34°
2026-04-14 06:03 18.24777 102.71795 35851 ft 488 kts 33°
2026-04-14 06:04 18.33055 102.78029 35898 ft 488 kts 33°
2026-04-14 06:04 18.38584 102.82190 35944 ft 488 kts 33°
2026-04-14 06:05 18.44134 102.86366 35975 ft 488 kts 33°
2026-04-14 06:05 18.49644 102.90518 35998 ft 489 kts 33°
2026-04-14 06:06 18.55195 102.94704 36009 ft 489 kts 33°
2026-04-14 06:06 18.60721 102.98873 36026 ft 489 kts 33°
2026-04-14 06:07 18.66261 103.03056 36065 ft 490 kts 33°
2026-04-14 06:07 18.71813 103.07252 36085 ft 490 kts 33°
2026-04-14 06:08 18.77328 103.11424 36094 ft 489 kts 33°
2026-04-14 06:08 18.82884 103.15631 36107 ft 490 kts 33°
2026-04-14 06:09 18.88399 103.19810 36115 ft 490 kts 33°
2026-04-14 06:09 18.93954 103.24023 36106 ft 490 kts 33°
2026-04-14 06:10 18.99470 103.28210 36077 ft 490 kts 33°
2026-04-14 06:10 19.05038 103.32440 36054 ft 491 kts 33°
2026-04-14 06:11 19.10573 103.36649 36058 ft 491 kts 33°
2026-04-14 06:11 19.16117 103.40867 36069 ft 491 kts 33°
2026-04-14 06:12 19.21674 103.45100 36099 ft 492 kts 33°
2026-04-14 06:12 19.27231 103.49337 36140 ft 492 kts 33°
2026-04-14 06:13 19.32762 103.53560 36147 ft 491 kts 33°
2026-04-14 06:13 19.38300 103.57795 36139 ft 491 kts 33°
2026-04-14 06:14 19.43843 103.62035 36120 ft 491 kts 33°
2026-04-14 06:14 19.49399 103.66325 36111 ft 492 kts 33°
2026-04-14 06:15 19.54912 103.70594 36119 ft 493 kts 33°
2026-04-14 06:15 19.60454 103.74891 36130 ft 493 kts 33°
2026-04-14 06:16 19.65965 103.79167 36134 ft 493 kts 33°
2026-04-14 06:16 19.71510 103.83472 36124 ft 493 kts 33°
2026-04-14 06:17 19.77070 103.87795 36094 ft 493 kts 33°
2026-04-14 06:17 19.82580 103.92082 36060 ft 493 kts 33°
2026-04-14 06:18 19.88105 103.96381 36041 ft 493 kts 33°
2026-04-14 06:18 19.93651 104.00704 36033 ft 493 kts 33°
2026-04-14 06:19 19.99204 104.05037 36034 ft 494 kts 33°
2026-04-14 06:19 20.04745 104.09362 36051 ft 494 kts 33°
2026-04-14 06:20 20.10272 104.13682 36043 ft 495 kts 33°
2026-04-14 06:20 20.15843 104.18038 36040 ft 496 kts 33°
2026-04-14 06:21 20.21389 104.22382 36022 ft 496 kts 33°
2026-04-14 06:21 20.26951 104.26739 35993 ft 497 kts 33°
2026-04-14 06:22 20.32503 104.31097 35979 ft 497 kts 33°
2026-04-14 06:22 20.38082 104.35479 35972 ft 498 kts 33°
2026-04-14 06:23 20.43678 104.39877 35969 ft 498 kts 33°
2026-04-14 06:23 20.49277 104.44190 35962 ft 497 kts 32°
2026-04-14 06:24 20.54905 104.48502 35953 ft 497 kts 32°
2026-04-14 06:24 20.60519 104.52820 35954 ft 498 kts 32°
2026-04-14 06:25 20.66127 104.57143 35958 ft 499 kts 32°
2026-04-14 06:25 20.71783 104.61508 35958 ft 500 kts 32°
2026-04-14 06:26 20.77926 104.64646 35936 ft 483 kts
2026-04-14 06:26 20.81226 104.64661 35939 ft 473 kts 347°
2026-04-14 06:26 20.84341 104.63689 35937 ft 462 kts 330°
2026-04-14 06:26 20.87028 104.61871 35935 ft 453 kts 315°
2026-04-14 06:27 20.89104 104.59409 35940 ft 446 kts 301°
2026-04-14 06:27 20.92399 104.53790 35963 ft 445 kts 299°
2026-04-14 06:27 20.94040 104.50968 35430 ft 445 kts 299°
2026-04-14 06:28 20.95654 104.48199 34754 ft 441 kts 299°
2026-04-14 06:28 20.97279 104.45416 34054 ft 437 kts 299°
2026-04-14 06:28 20.98884 104.42670 33385 ft 434 kts 299°
2026-04-14 06:28 21.00476 104.39943 32691 ft 432 kts 299°
2026-04-14 06:29 21.02054 104.37242 31981 ft 431 kts 299°
2026-04-14 06:29 21.03643 104.34521 31233 ft 431 kts 298°
2026-04-14 06:29 21.05225 104.31808 30552 ft 430 kts 298°
2026-04-14 06:29 21.06790 104.29127 30068 ft 424 kts 298°
2026-04-14 06:30 21.08332 104.26484 29580 ft 418 kts 298°
2026-04-14 06:30 21.09864 104.23856 29073 ft 413 kts 298°
2026-04-14 06:30 21.11371 104.21269 28568 ft 409 kts 298°
2026-04-14 06:30 21.12864 104.18700 28048 ft 405 kts 298°
2026-04-14 06:31 21.14342 104.16157 27547 ft 401 kts 298°
2026-04-14 06:31 21.15820 104.13614 27053 ft 397 kts 298°
2026-04-14 06:31 21.17341 104.10998 26554 ft 392 kts 298°
2026-04-14 06:31 21.18765 104.08546 26096 ft 388 kts 298°
2026-04-14 06:32 21.20138 104.06084 25618 ft 383 kts 295°
2026-04-14 06:32 21.21211 104.03490 25137 ft 377 kts 288°
2026-04-14 06:32 21.21936 104.00836 24661 ft 372 kts 281°
2026-04-14 06:32 21.22412 103.98111 24195 ft 368 kts 278°
2026-04-14 06:33 21.22833 103.95426 23728 ft 364 kts 278°
2026-04-14 06:33 21.23253 103.92712 23246 ft 361 kts 278°
2026-04-14 06:33 21.23663 103.90066 22775 ft 358 kts 278°
2026-04-14 06:34 21.24470 103.84868 21847 ft 353 kts 278°
2026-04-14 06:34 21.24868 103.82314 21392 ft 351 kts 278°
2026-04-14 06:34 21.25270 103.79730 20926 ft 349 kts 278°
2026-04-14 06:34 21.25670 103.77164 20461 ft 348 kts 278°
2026-04-14 06:35 21.26066 103.74622 20004 ft 346 kts 278°
2026-04-14 06:35 21.26457 103.72103 19539 ft 345 kts 278°
2026-04-14 06:35 21.26846 103.69588 19070 ft 345 kts 278°
2026-04-14 06:35 21.27240 103.67045 18595 ft 344 kts 278°
2026-04-14 06:36 21.27628 103.64537 18130 ft 343 kts 277°
2026-04-14 06:36 21.28017 103.62025 17665 ft 342 kts 277°
2026-04-14 06:36 21.28405 103.59506 17196 ft 341 kts 277°
2026-04-14 06:36 21.28788 103.57018 16734 ft 341 kts 278°
2026-04-14 06:37 21.29172 103.54516 16263 ft 340 kts 278°
2026-04-14 06:37 21.29558 103.52007 15790 ft 340 kts 278°
2026-04-14 06:37 21.29938 103.49528 15320 ft 339 kts 278°
2026-04-14 06:37 21.30319 103.47046 14846 ft 339 kts 278°
2026-04-14 06:38 21.30698 103.44566 14367 ft 338 kts 278°
2026-04-14 06:38 21.31077 103.42088 13892 ft 338 kts 278°
2026-04-14 06:38 21.31456 103.39609 13412 ft 337 kts 278°
2026-04-14 06:38 21.31834 103.37137 12932 ft 337 kts 278°
2026-04-14 06:39 21.32211 103.34669 12439 ft 336 kts 278°
2026-04-14 06:39 21.32256 103.32176 12044 ft 330 kts 259°
2026-04-14 06:39 21.31410 103.29966 11968 ft 315 kts 236°
2026-04-14 06:39 21.29873 103.28387 11876 ft 306 kts 213°
2026-04-14 06:40 21.27905 103.27623 11703 ft 300 kts 192°
2026-04-14 06:40 21.25855 103.27312 11576 ft 289 kts 194°
2026-04-14 06:40 21.23985 103.26650 11408 ft 278 kts 206°
2026-04-14 06:40 21.22391 103.25556 11129 ft 271 kts 223°
2026-04-14 06:41 21.21113 103.24081 10853 ft 267 kts 234°
2026-04-14 06:41 21.20061 103.22447 10579 ft 264 kts 238°
2026-04-14 06:41 21.19084 103.20827 10308 ft 261 kts 237°
2026-04-14 06:41 21.18063 103.19198 9961 ft 261 kts 236°
2026-04-14 06:42 21.16956 103.17669 9631 ft 262 kts 231°
2026-04-14 06:42 21.15784 103.16182 9324 ft 260 kts 230°
2026-04-14 06:42 21.14603 103.14702 9010 ft 259 kts 230°
2026-04-14 06:42 21.13450 103.13261 8794 ft 254 kts 230°
2026-04-14 06:43 21.12323 103.11790 8434 ft 255 kts 236°
2026-04-14 06:43 21.11444 103.10152 8095 ft 256 kts 249°
2026-04-14 06:43 21.11213 103.08282 7763 ft 254 kts 278°
2026-04-14 06:43 21.11855 103.06572 7559 ft 245 kts 302°
2026-04-14 06:44 21.13102 103.05383 7342 ft 240 kts 333°
2026-04-14 06:44 21.14721 103.05042 7178 ft 236 kts 358°
2026-04-14 06:44 21.16330 103.05137 7092 ft 225 kts
2026-04-14 06:44 21.17844 103.05286 6975 ft 213 kts
2026-04-14 06:45 21.19291 103.05403 6790 ft 202 kts 356°
2026-04-14 06:45 21.20650 103.05211 6604 ft 189 kts 345°
2026-04-14 06:45 21.21897 103.04917 6421 ft 179 kts 343°
2026-04-14 06:45 21.23085 103.04619 6221 ft 170 kts 342°
2026-04-14 06:46 21.25353 103.04041 5523 ft 163 kts 343°
2026-04-14 06:46 21.26457 103.03760 5406 ft 163 kts 342°
2026-04-14 06:46 21.27551 103.03480 5161 ft 158 kts 343°
2026-04-14 06:47 21.28600 103.03213 4886 ft 154 kts 343°
2026-04-14 06:47 21.29644 103.02946 4608 ft 153 kts 343°
2026-04-14 06:47 21.30680 103.02681 4324 ft 153 kts 343°
2026-04-14 06:47 21.31719 103.02422 4040 ft 153 kts 346°
2026-04-14 06:48 21.32776 103.02251 3793 ft 153 kts 350°
2026-04-14 06:48 21.33830 103.02118 3575 ft 153 kts 351°
2026-04-14 06:48 21.34883 103.01989 3356 ft 152 kts 351°
2026-04-14 06:48 21.35946 103.01858 2991 ft 155 kts 352°
2026-04-14 06:49 21.37034 103.01709 2477 ft 160 kts 346°
2026-04-14 06:49 21.38098 103.01354 1994 ft 162 kts 337°
2026-04-14 06:49 21.39092 103.00893 1690 ft 151 kts 335°
2026-04-14 06:49 21.39997 103.00456 1704 ft 145 kts 334°
2026-04-14 06:50 21.40977 103.00019 2091 ft 159 kts 337°
2026-04-14 06:50 21.41998 102.99566 2785 ft 159 kts 334°
2026-04-14 06:50 21.42962 102.99101 3447 ft 150 kts 333°
2026-04-14 06:50 21.43993 102.98798 3657 ft 162 kts
2026-04-14 06:51 21.45041 102.99307 3817 ft 177 kts 40°
2026-04-14 06:51 21.45857 103.00370 4052 ft 190 kts 57°
2026-04-14 06:51 21.46531 103.01650 4282 ft 205 kts 62°
2026-04-14 06:51 21.47169 103.03078 4562 ft 220 kts 69°
2026-04-14 06:52 21.47670 103.04679 4887 ft 234 kts 73°
2026-04-14 06:52 21.48137 103.06427 5107 ft 254 kts 81°
2026-04-14 06:52 21.48023 103.08308 5536 ft 258 kts 111°
2026-04-14 06:52 21.47093 103.09889 5969 ft 249 kts 139°
2026-04-14 06:53 21.45770 103.11074 6166 ft 247 kts 146°
2026-04-14 06:53 21.44357 103.12149 6175 ft 245 kts 148°
2026-04-14 06:53 21.42940 103.13158 6178 ft 243 kts 155°
2026-04-14 06:53 21.41332 103.13841 6188 ft 254 kts 165°
2026-04-14 06:54 21.39603 103.14380 6284 ft 261 kts 167°
2026-04-14 06:54 21.37843 103.14893 6781 ft 263 kts 167°
2026-04-14 06:54 21.36087 103.15401 7097 ft 262 kts 167°
2026-04-14 06:54 21.34300 103.15915 7179 ft 262 kts 167°
2026-04-14 06:55 21.32554 103.16415 7181 ft 261 kts 167°
2026-04-14 06:55 21.30772 103.16927 7183 ft 262 kts 167°
2026-04-14 06:55 21.29010 103.17432 7183 ft 262 kts 167°
2026-04-14 06:55 21.27253 103.17939 7181 ft 262 kts 167°
2026-04-14 06:56 21.25483 103.18452 7178 ft 262 kts 167°
2026-04-14 06:56 21.23728 103.18959 7181 ft 262 kts 167°
2026-04-14 06:56 21.21946 103.19455 7183 ft 261 kts 172°
2026-04-14 06:56 21.20183 103.19399 7179 ft 255 kts 199°
2026-04-14 06:57 21.18643 103.18462 7196 ft 252 kts 219°
2026-04-14 06:57 21.17248 103.17312 7197 ft 253 kts 218°
2026-04-14 06:57 21.15845 103.16206 7197 ft 253 kts 218°
2026-04-14 06:57 21.14430 103.15064 7198 ft 253 kts 221°
2026-04-14 06:58 21.13209 103.13717 7197 ft 251 kts 234°
2026-04-14 06:58 21.12378 103.12088 7198 ft 252 kts 249°
2026-04-14 06:58 21.12071 103.10263 7185 ft 251 kts 275°
2026-04-14 06:58 21.12635 103.08519 7081 ft 247 kts 303°
2026-04-14 06:59 21.13909 103.07346 6924 ft 243 kts 333°
2026-04-14 06:59 21.15510 103.06779 6787 ft 237 kts 343°
2026-04-14 06:59 21.17099 103.06380 6646 ft 230 kts 344°
2026-04-14 06:59 21.18634 103.06017 6466 ft 224 kts 345°
2026-04-14 07:00 21.20124 103.05671 6360 ft 208 kts 345°
2026-04-14 07:00 21.21522 103.05346 6022 ft 206 kts 345°
2026-04-14 07:00 21.22918 103.05019 5615 ft 206 kts 345°
2026-04-14 07:00 21.24323 103.04691 5367 ft 207 kts 345°
2026-04-14 07:01 21.25739 103.04359 5029 ft 206 kts 345°
2026-04-14 07:01 21.27107 103.04041 4677 ft 197 kts 345°
2026-04-14 07:01 21.28425 103.03733 4340 ft 190 kts 345°
2026-04-14 07:01 21.29673 103.03442 4064 ft 180 kts 345°
2026-04-14 07:02 21.30868 103.03163 3767 ft 169 kts 346°
2026-04-14 07:02 21.31983 103.02904 3498 ft 157 kts 345°
2026-04-14 07:02 21.33018 103.02663 3255 ft 150 kts 346°
2026-04-14 07:02 21.34042 103.02440 3009 ft 149 kts 348°
2026-04-14 07:03 21.35058 103.02248 2735 ft 148 kts 347°
2026-04-14 07:03 21.36073 103.02014 2462 ft 148 kts 345°
2026-04-14 07:03 21.37073 103.01744 2159 ft 147 kts 341°
2026-04-14 07:03 21.38034 103.01382 1906 ft 146 kts 336°
2026-04-14 07:04 21.38975 103.00954 1716 ft 145 kts 334°
2026-04-14 07:04 21.39829 103.00545 1670 ft 105 kts 334°
2026-04-14 07:04 21.40255 103.00344 1672 ft 40 kts 336°
2026-04-14 07:04 21.40450 103.00252 1673 ft 17 kts 336°
2026-04-14 07:05 21.40502 103.00230 1673 ft 2 kts 264°
2026-04-14 07:05 21.40486 103.00232 1673 ft 3 kts 146°
2026-04-14 07:05 21.40437 103.00259 1673 ft 11 kts 156°
2026-04-14 07:05 21.40365 103.00291 1673 ft 8 kts 157°
2026-04-14 07:06 21.40311 103.00315 1673 ft 8 kts 157°
2026-04-14 07:06 21.40256 103.00339 1672 ft 6 kts 157°
2026-04-14 07:06 21.40226 103.00353 1672 ft 5 kts 157°
2026-04-14 07:06 21.40192 103.00365 1671 ft 3 kts 187°
2026-04-14 07:07 21.40178 103.00343 1671 ft 2 kts 252°
2026-04-14 07:07 21.40172 103.00323 1672 ft 2 kts 252°
2026-04-14 07:07 21.40162 103.00287 1673 ft 7 kts 252°
2026-04-14 07:07 21.40162 103.00249 1674 ft 2 kts 295°
2026-04-14 07:08 21.40179 103.00235 1674 ft 3 kts 341°
2026-04-14 07:08 21.40217 103.00232 1674 ft 5 kts
2026-04-14 07:08 21.40238 103.00232 1675 ft 2 kts 353°
2026-04-14 07:08 21.40254 103.00240 1675 ft 3 kts 58°
2026-04-14 07:09 21.40260 103.00254 1674 ft 1 kts 70°
2026-04-14 07:09 21.40261 103.00263 1674 ft 1 kts 81°
2026-04-14 07:09 21.40264 103.00279 1673 ft 0 kts 70°